This is the latest recevied weather packets stored in our database for station/object NL3D. If no packets are shown the sender has not sent any weather packets the latest 1 day(s).
| Time | Temp. | Humidity | Pressure | Rain* | Wind** | Luminosity | Snow |
|---|---|---|---|---|---|---|---|
| 1778047239 | 7.22° C | 55% | 1008.5 hPa | 0 mm | 1.34 m/s, 267° | 6 W/m² | - |
| 1778046936 | 7.22° C | 54% | 1008.4 hPa | 0 mm | 0.89 m/s, 97° | 8 W/m² | - |
| 1778046633 | 7.22° C | 55% | 1008.2 hPa | 0 mm | 0 m/s | 10 W/m² | - |
| 1778046330 | 7.22° C | 54% | 1008.2 hPa | 0 mm | 0 m/s | 13 W/m² | - |
| 1778046026 | 7.78° C | 54% | 1008.2 hPa | 0 mm | 0.89 m/s, 148° | 14 W/m² | - |
| 1778045724 | 7.78° C | 54% | 1008.2 hPa | 0 mm | 1.34 m/s, 231° | 15 W/m² | - |
| 1778045422 | 7.78° C | 54% | 1008.2 hPa | 0 mm | 0.89 m/s, 122° | 16 W/m² | - |
| 1778045120 | 7.78° C | 53% | 1008.1 hPa | 0 mm | 0 m/s | 19 W/m² | - |
| 1778044818 | 7.78° C | 53% | 1008.3 hPa | 0 mm | 2.24 m/s, 183° | 23 W/m² | - |
| 1778044514 | 7.78° C | 54% | 1007.9 hPa | 0 mm | 1.34 m/s, 167° | 27 W/m² | - |
| 1778044211 | 7.78° C | 53% | 1007.9 hPa | 0 mm | 1.34 m/s, 209° | 30 W/m² | - |
| 1778043909 | 7.78° C | 54% | 1008 hPa | 0 mm | 1.79 m/s, 192° | 32 W/m² | - |
| 1778043606 | 7.78° C | 54% | 1007.9 hPa | 0 mm | 0.89 m/s, 199° | 36 W/m² | - |
| 1778043302 | 7.78° C | 54% | 1007.7 hPa | 0 mm | 0.89 m/s, 119° | 32 W/m² | - |
| 1778042999 | 7.78° C | 53% | 1007.7 hPa | 0 mm | 4.02 m/s, 98° | 29 W/m² | - |
| 1778042698 | 7.78° C | 53% | 1007.9 hPa | 0 mm | 0.89 m/s, 122° | 34 W/m² | - |
| 1778042394 | 7.78° C | 53% | 1007.6 hPa | 0 mm | 2.68 m/s, 89° | 38 W/m² | - |
| 1778042091 | 7.78° C | 52% | 1007.5 hPa | 0 mm | 0.45 m/s, 174° | 40 W/m² | - |
| 1778041789 | 7.78° C | 53% | 1007.4 hPa | 0 mm | 1.34 m/s, 70° | 39 W/m² | - |
| 1778041489 | 7.78° C | 52% | 1007.8 hPa | 0 mm | 0 m/s | 39 W/m² | - |
| 1778041186 | 8.33° C | 52% | 1007.4 hPa | 0 mm | 2.24 m/s, 141° | 38 W/m² | - |
| 1778040884 | 8.33° C | 53% | 1007.5 hPa | 0 mm | 0.89 m/s, 178° | 40 W/m² | - |
| 1778040581 | 8.33° C | 52% | 1007.4 hPa | 0 mm | 2.68 m/s, 211° | 40 W/m² | - |
| 1778040278 | 8.33° C | 52% | 1007.4 hPa | 0 mm | 1.34 m/s, 180° | 41 W/m² | - |
| 1778039974 | 8.89° C | 52% | 1007.6 hPa | 0 mm | 1.34 m/s, 139° | 42 W/m² | - |
* Rain latest hour (hover to see other rain measurements)
** Current wind speed in m/s (hover to see current wind gust speed)